Weather History for Fort Stockton, TX

Change the Weather History Date:

Tuesday, November 26, 2013

  Actual Average Record
Temperature  
Mean Temperature 40 °F -  
Max Temperature 50 °F 62 °F 79 °F (2005)
Min Temperature 30 °F 39 °F 26 °F (2010)
Degree Days  
Heating Degree Days 25    
Moisture  
Dew Point 26 °F    
Average Humidity 62    
Maximum Humidity 82    
Minimum Humidity 35    
Precipitation  
Precipitation 0.00 in - - ()
Sea Level Pressure  
Sea Level Pressure 30.34 in    
Wind  
Wind Speed 15 mph (NW)    
Max Wind Speed 24 mph    
Max Gust Speed 32 mph    
Visibility 10 miles    
Events      
Averages and records for this station are not official NWS values.
T = Trace of Precipitation, MM = Missing Value Source: NWS Daily Summary

Daily Weather History Graph

Daily Weather History Graph

Search for Another Location

Airport:

Trip Planner

Search our weather history database for the weather conditions in past years. The results will help you decide how hot, cold, wet, or windy it might be!

Date:

Astronomy

Nov. 26, 2013 Rise Set
Actual Time 7:28 AM CST 5:49 PM CST
Civil Twilight 7:01 AM CST 6:16 PM CST
Nautical Twilight 6:32 AM CST 6:45 PM CST
Astronomical Twilight 6:03 AM CST 7:14 PM CST
Moon 12:59 AM CST (11/26) 1:34 PM CST (11/26)
Length of Visible Light 11h 14m
Length of Day
10h 21m
Last Quarter, 41% of the Moon is Illuminated
Nov 26
Last Quarter
Dec 2
New
Dec 9
First Quarter
Dec 17
Full
Dec 25
Last Quarter

Hourly Weather History & Observations

Time (CST) Temp. Windchill Dew Point Humidity Pressure Visibility Wind Dir Wind Speed Gust Speed Precip Events Conditions
12:15 AM 39.0 °F 28.3 °F 30.0 °F 70% 30.22 in 10.0 mi NNW 24.2 mph 29.9 mph N/A   Overcast
12:53 AM 35.1 °F 23.5 °F 24.1 °F 64% 30.22 in 10.0 mi NNW 21.9 mph 32.2 mph N/A   Overcast
1:53 AM 34.0 °F 22.7 °F 25.0 °F 70% 30.22 in 10.0 mi NNW 19.6 mph - N/A   Overcast
2:53 AM 34.0 °F 23.4 °F 26.1 °F 73% 30.23 in 10.0 mi NNW 17.3 mph - N/A   Overcast
3:53 AM 34.0 °F 25.5 °F 27.0 °F 75% 30.25 in 10.0 mi NW 11.5 mph - N/A   Overcast
4:53 AM 33.1 °F 23.4 °F 26.1 °F 75% 30.27 in 10.0 mi NW 13.8 mph - N/A   Overcast
5:21 AM 32.0 °F 21.6 °F 26.1 °F 79% 30.29 in 10.0 mi NW 15.0 mph - N/A   Overcast
5:53 AM 33.1 °F 22.6 °F 26.1 °F 75% 30.28 in 10.0 mi NNW 16.1 mph 26.5 mph N/A   Overcast
6:53 AM 32.0 °F 21.6 °F 26.1 °F 79% 30.31 in 10.0 mi NNW 15.0 mph - N/A   Overcast
7:40 AM 30.9 °F 22.8 °F 26.1 °F 82% 30.35 in 9.0 mi WNW 9.2 mph - N/A   Scattered Clouds
7:53 AM 30.9 °F 22.8 °F 25.0 °F 79% 30.35 in 10.0 mi WNW 9.2 mph - N/A   Clear
8:53 AM 34.0 °F 25.5 °F 26.1 °F 73% 30.38 in 10.0 mi NW 11.5 mph - N/A   Clear
9:53 AM 37.9 °F 28.9 °F 26.1 °F 62% 30.39 in 10.0 mi NW 16.1 mph - N/A   Clear
10:53 AM 39.9 °F 31.8 °F 26.1 °F 58% 30.39 in 10.0 mi NW 15.0 mph - N/A   Clear
11:53 AM 43.0 °F 36.0 °F 26.1 °F 51% 30.40 in 10.0 mi NNW 13.8 mph 21.9 mph N/A   Clear
12:53 PM 45.0 °F 37.9 °F 25.0 °F 46% 30.38 in 10.0 mi NW 16.1 mph - N/A   Clear
1:53 PM 46.9 °F - 21.9 °F 37% 30.36 in 10.0 mi NNW 13.8 mph 23.0 mph N/A   Clear
2:53 PM 48.9 °F - 23.0 °F 36% 30.35 in 10.0 mi North 10.4 mph - N/A   Clear
3:53 PM 50.0 °F - 23.0 °F 35% 30.34 in 10.0 mi NNW 9.2 mph - N/A   Clear
4:53 PM 50.0 °F - 24.1 °F 36% 30.34 in 10.0 mi North 10.4 mph - N/A   Clear
5:53 PM 45.0 °F 41.2 °F 27.0 °F 49% 30.36 in 10.0 mi NNW 6.9 mph - N/A   Clear
6:53 PM 42.1 °F 37.7 °F 26.1 °F 53% 30.38 in 10.0 mi NW 6.9 mph - N/A   Clear
7:53 PM 39.9 °F 36.7 °F 26.1 °F 58% 30.40 in 9.0 mi WNW 4.6 mph - N/A   Clear
8:53 PM 39.0 °F 34.0 °F 26.1 °F 60% 30.42 in 10.0 mi West 6.9 mph - N/A   Clear
9:53 PM 37.9 °F 33.5 °F 25.0 °F 60% 30.42 in 10.0 mi WNW 5.8 mph - N/A   Clear
10:53 PM 37.0 °F 32.4 °F 26.1 °F 65% 30.42 in 10.0 mi West 5.8 mph - N/A   Clear
11:53 PM 36.0 °F 31.1 °F 25.0 °F 64% 30.40 in 10.0 mi NW 5.8 mph - N/A   Clear